EW5933 Akouda TN current weather conditions

sailwx.info

Wind from 045 at 4 knots gusting 7

Air temperature 20.0° C
Dewpoint 9.8° C

Last reported at 2019-Dec-14 12:51 UTC.
Time now 2019-Dec-14 13:45 UTC

Location: N 35°53' E 010°34'.
View on Google Maps.

See reports from other nearby stations

  
Tides and Currents Weather Stations Pressure Air Temp Water Temp Dewpoint Dewpoint Depression Visibility Wind Speed Wind Dir Waves Ship Positions
date/time (UTC)wind fromknots sea level pressurealtimeterstation pressurevisibilityair tempwater tempwave heightnotes
2019-Dec-14 12:51 045 4 gusting 7 20.0
2019-Dec-14 12:31 022 4 gusting 6 19.4
2019-Dec-14 12:11 225 5 gusting 5 19.4
2019-Dec-14 12:01 225 4 gusting 6 19.4
2019-Dec-14 11:31 292 5 gusting 8 19.4
2019-Dec-14 11:21 270 4 gusting 6 19.4
2019-Dec-14 11:01 270 4 gusting 7 18.9
2019-Dec-14 10:41 090 3 gusting 5 18.9
2019-Dec-14 10:31 315 5 gusting 6 18.9
2019-Dec-14 10:11 247 3 gusting 5 18.3
2019-Dec-14 09:41 247 3 gusting 4 18.3
2019-Dec-14 09:01 090 4 gusting 7 17.8
2019-Dec-14 08:51 292 3 gusting 6 17.8
2019-Dec-14 08:31 022 2 gusting 4 17.8
2019-Dec-14 08:21 135 2 gusting 3 17.2
2019-Dec-14 08:11 180 2 gusting 2 17.2
2019-Dec-14 07:31 180 2 gusting 2 16.7
2019-Dec-14 07:21 247 3 gusting 5 16.7
2019-Dec-14 07:11 180 3 gusting 3 16.7
2019-Dec-14 06:51 247 3 gusting 3 16.1
2019-Dec-14 05:31 292 4 gusting 2 16.7
2019-Dec-14 05:21 270 3 gusting 6 16.7
2019-Dec-14 05:01 247 3 gusting 6 16.7
2019-Dec-14 04:51 315 3 gusting 5 16.1
2019-Dec-14 03:51 270 3 gusting 3 16.1
2019-Dec-14 03:41 270 5 gusting 6 16.1
2019-Dec-14 03:21 247 3 gusting 4 16.1
2019-Dec-14 03:01 315 3 gusting 4 16.1
2019-Dec-14 02:31 202 4 gusting 3 16.1
2019-Dec-14 02:11 292 3 gusting 5 15.6
2019-Dec-14 01:51 247 1 gusting 3 15.6
2019-Dec-14 01:41 247 0 gusting 1 15.6
2019-Dec-14 00:41 247 2 gusting 2 16.1
2019-Dec-14 00:31 292 0 gusting 1 16.1
2019-Dec-14 00:21 270 1 gusting 2 16.1
2019-Dec-14 00:11 292 1 gusting 2 16.1
2019-Dec-14 00:01 315 16.1
2019-Dec-13 23:51 360 0 gusting 0 16.1
2019-Dec-13 23:31 247 1 gusting 2 16.1
2019-Dec-13 23:21 270 1 gusting 3 16.1
2019-Dec-13 22:51 247 1 gusting 1 16.1
2019-Dec-13 22:31 270 3 gusting 4 16.7
2019-Dec-13 22:21 270 3 gusting 4 16.7
2019-Dec-13 21:51 247 2 gusting 3 16.7
2019-Dec-13 21:31 247 3 gusting 4 16.7
2019-Dec-13 21:01 270 2 gusting 5 16.7
2019-Dec-13 20:51 270 1 gusting 4 16.7
2019-Dec-13 20:41 292 2 gusting 1 16.7
2019-Dec-13 20:01 270 3 gusting 3 16.1
2019-Dec-13 19:51 292 2 gusting 3 16.1
2019-Dec-13 19:11 247 2 gusting 1 15.6
2019-Dec-13 18:31 202 2 gusting 4 15.6
2019-Dec-13 17:51 225 2 gusting 3 15.6
2019-Dec-13 17:41 180 3 gusting 4 15.6
2019-Dec-13 17:21 247 3 gusting 4 15.6
2019-Dec-13 17:01 225 2 gusting 2 15.6
2019-Dec-13 16:41 337 3 gusting 4 15.6
2019-Dec-13 16:31 225 3 gusting 6 15.6
2019-Dec-13 16:21 225 2 gusting 4 15.6
2019-Dec-13 16:01 247 3 gusting 3 15.6
2019-Dec-13 15:11 247 3 gusting 3 15.6
2019-Dec-13 15:01 225 2 gusting 3 15.6
2019-Dec-13 14:51 315 2 gusting 3 15.0
2019-Dec-13 14:41 270 2 gusting 4 15.0
2019-Dec-13 13:51 247 4 gusting 3 15.0
2019-Dec-13 13:41 225 4 gusting 5 15.0
2019-Dec-13 13:21 247 4 gusting 6 15.0
2019-Dec-13 13:01 270 4 gusting 6 15.0
2019-Dec-13 12:51 247 4 gusting 6 15.0
2019-Dec-13 12:31 225 3 gusting 3 15.0
2019-Dec-13 12:21 225 2 gusting 6 15.0
2019-Dec-13 12:11 270 14.4
2019-Dec-13 12:01 247 14.4
2019-Dec-13 11:51 315 0 gusting 1 14.4
2019-Dec-13 11:41 247 1 gusting 3 14.4
2019-Dec-13 11:21 225 2 gusting 2 14.4
2019-Dec-13 11:11 247 3 gusting 3 14.4
2019-Dec-13 11:01 292 3 gusting 3 15.0
2019-Dec-13 10:31 247 5 gusting 5 14.4
2019-Dec-13 10:21 247 4 gusting 8 14.4
2019-Dec-13 10:11 090 4 gusting 5 14.4
2019-Dec-13 10:01 270 4 gusting 6 13.9
2019-Dec-13 09:41 270 5 gusting 8 13.3
2019-Dec-13 09:21 225 2 gusting 5 13.3
2019-Dec-13 08:51 157 3 gusting 2 12.8
2019-Dec-13 08:41 225 4 gusting 2 12.2
2019-Dec-13 08:31 247 3 gusting 3 12.2
2019-Dec-13 08:21 225 3 gusting 4 12.2
2019-Dec-13 08:11 270 3 gusting 6 11.7
2019-Dec-13 08:01 315 2 gusting 4 11.7
2019-Dec-13 07:41 225 2 gusting 3 11.7
2019-Dec-13 07:31 247 2 gusting 1 11.7
2019-Dec-13 07:11 247 1 gusting 4 11.1
2019-Dec-13 06:31 270 2 gusting 4 11.7
2019-Dec-13 06:21 247 2 gusting 2 11.7
2019-Dec-13 05:41 315 1 gusting 1 11.7
2019-Dec-13 05:31 225 1 gusting 3 11.7
2019-Dec-13 05:21 225 1 gusting 2 11.7
2019-Dec-13 00:01 270 1 gusting 4 12.8
2019-Dec-12 23:31 270 2 gusting 3 12.8
2019-Dec-12 23:21 337 12.8
2019-Dec-12 23:11 247 0 gusting 1 12.8
2019-Dec-12 23:01 270 0 gusting 1 12.8
2019-Dec-12 22:51 247 1 gusting 3 12.8
2019-Dec-12 22:31 292 1 gusting 4 12.8
2019-Dec-12 22:21 292 1 gusting 1 13.3
2019-Dec-12 22:11 247 1 gusting 2 13.3
2019-Dec-12 21:51 270 2 gusting 2 13.3
2019-Dec-12 21:11 315 2 gusting 2 13.3
2019-Dec-12 21:01 292 3 gusting 3 13.9
2019-Dec-12 20:51 292 2 gusting 7 13.9
2019-Dec-12 20:11 270 1 gusting 2 13.9
2019-Dec-12 20:01 247 0 gusting 1 13.9
2019-Dec-12 19:41 270 13.9
2019-Dec-12 19:31 157 13.9
2019-Dec-12 19:11 337 13.9
2019-Dec-12 19:01 067 13.9
2019-Dec-12 18:51 315 0 13.9
2019-Dec-12 18:31 022 14.4
2019-Dec-12 18:01 292 14.4
2019-Dec-12 17:51 315 14.4
2019-Dec-12 17:41 225 14.4
2019-Dec-12 17:31 270 0 14.4
2019-Dec-12 17:21 292 0 gusting 1 15.0
2019-Dec-12 17:01 247 1 gusting 1 14.4
2019-Dec-12 16:51 315 1 gusting 2 15.0
2019-Dec-12 16:41 292 0 gusting 3 15.0
2019-Dec-12 16:11 270 1 gusting 1 15.0
2019-Dec-12 16:01 292 0 gusting 2 15.0
2019-Dec-12 15:51 022 0 gusting 0 15.0
2019-Dec-12 15:11 247 2 gusting 1 15.6
2019-Dec-12 15:01 045 2 gusting 2 15.6
2019-Dec-12 14:51 112 1 gusting 4 16.1
2019-Dec-12 14:41 270 2 gusting 4 16.1
2019-Dec-12 14:31 270 3 gusting 1 16.7
2019-Dec-12 14:11 157 4 gusting 4 16.7
2019-Dec-12 14:01 270 4 gusting 3 17.2
2019-Dec-12 13:41 315 3 gusting 5 17.8
2019-Dec-12 13:21 247 4 gusting 7 16.7
2019-Dec-12 13:11 135 3 gusting 3 16.7